Hot Springs, AR

11:57 PM CST on February 20, 2018 (GMT -0600)
Hot Springs Memorial

Weather History for KHOT - September, 2012

Change the Weather History Date:

Friday, September 14, 2012

  Actual Average Record
Temperature  
Mean Temperature 75 °F 75 °F  
Max Temperature 82 °F 86 °F 102 °F (1980)
Min Temperature 69 °F 64 °F 48 °F (1964)
Degree Days  
Heating Degree Days 0 0  
Month to date heating degree days 0  
Since 1 July heating degree days 0  
Cooling Degree Days 10 10  
Month to date cooling degree days 175  
Year to date cooling degree days 1934  
Growing Degree Days 25 (Base 50)    
Moisture  
Dew Point 67 °F    
Average Humidity 82    
Maximum Humidity 96    
Minimum Humidity 58    
Precipitation  
Precipitation 2.12 in 0.13 in 2.12 in (2012)
Month to date precipitation 1.66  
Year to date precipitation 37.52  
Sea Level Pressure  
Sea Level Pressure 30.17 in    
Wind  
Wind Speed 5 mph (ESE)    
Max Wind Speed 12 mph    
Max Gust Speed -    
Visibility 7 miles    
Events Fog , Rain , Thunderstorm    
T = Trace of Precipitation, MM = Missing Value Source: NWS Daily Summary

Daily Weather History Graph

Daily Weather History Graph

Search for Another Location

Airport or City:

Trip Planner

Search our weather history database for the weather conditions in past years. The results will help you decide how hot, cold, wet, or windy it might be!

Date:

Astronomy

Sep. 14, 2012 Rise Set
Actual Time 6:55 AM CDT 7:19 PM CDT
Civil Twilight 6:29 AM CDT 7:44 PM CDT
Nautical Twilight 6:00 AM CDT 8:14 PM CDT
Astronomical Twilight 5:30 AM CDT 8:44 PM CDT
Moon 5:22 AM CDT (9/14) 6:16 PM CDT (9/14)
Length of Visible Light 13h 15m
Length of Day
12h 24m
Waning Crescent, 2% of the Moon is Illuminated
Sep 14
Waning Crescent
Sep 15
New
Sep 22
First Quarter
Sep 29
Full
Oct 8
Last Quarter

Hourly Weather History & Observations

Time (CDT) Temp. Heat Index Dew Point Humidity Pressure Visibility Wind Dir Wind Speed Gust Speed Precip Events Conditions
12:53 AM 73.0 °F - 68.0 °F 84% 30.16 in 10.0 mi East 3.5 mph - N/A   Clear
1:53 AM 72.0 °F - 68.0 °F 87% 30.15 in 10.0 mi East 4.6 mph - N/A   Clear
2:53 AM 72.0 °F - 66.9 °F 84% 30.13 in 10.0 mi ENE 4.6 mph - N/A   Clear
3:53 AM 71.1 °F - 66.9 °F 87% 30.12 in 10.0 mi East 4.6 mph - N/A   Clear
4:53 AM 70.0 °F - 66.0 °F 87% 30.12 in 10.0 mi ENE 5.8 mph - N/A   Partly Cloudy
5:53 AM 70.0 °F - 66.0 °F 87% 30.13 in 10.0 mi Calm Calm - N/A   Clear
6:53 AM 71.1 °F - 66.9 °F 87% 30.14 in 10.0 mi Calm Calm - N/A   Clear
7:53 AM 71.6 °F - 66.2 °F 83% 30.17 in 10.0 mi ESE 4.6 mph - N/A   Partly Cloudy
8:53 AM 73.0 °F - 66.0 °F 79% 30.17 in 10.0 mi East 5.8 mph - N/A   Partly Cloudy
9:53 AM 73.9 °F - 66.9 °F 79% 30.18 in 10.0 mi ESE 5.8 mph - N/A   Overcast
10:34 AM 75.2 °F - 66.2 °F 73% 30.19 in 10.0 mi Calm Calm - N/A   Mostly Cloudy
10:48 AM 75.2 °F - 66.2 °F 73% 30.20 in 10.0 mi Calm Calm - N/A   Scattered Clouds
10:53 AM 77.0 °F - 66.9 °F 71% 30.18 in 10.0 mi South 3.5 mph - N/A   Scattered Clouds
11:30 AM 78.8 °F - 68.0 °F 69% 30.20 in 10.0 mi SE 4.6 mph - N/A   Mostly Cloudy
11:48 AM 78.8 °F - 68.0 °F 69% 30.20 in 10.0 mi South 5.8 mph - N/A   Scattered Clouds
11:53 AM 79.0 °F - 68.0 °F 69% 30.18 in 10.0 mi South 4.6 mph - N/A   Scattered Clouds
12:53 PM 80.1 °F 82.7 °F 68.0 °F 67% 30.17 in 10.0 mi SSW 3.5 mph - N/A   Mostly Cloudy
1:53 PM 80.1 °F 82.3 °F 66.9 °F 64% 30.15 in 10.0 mi SSW 4.6 mph - N/A   Overcast
2:53 PM 81.0 °F 83.3 °F 66.9 °F 62% 30.12 in 10.0 mi Calm Calm - N/A   Clear
3:53 PM 81.0 °F 82.7 °F 64.9 °F 58% 30.11 in 10.0 mi Variable 3.5 mph - N/A   Scattered Clouds
4:53 PM 79.0 °F - 68.0 °F 69% 30.12 in 10.0 mi ENE 9.2 mph - N/A   Mostly Cloudy
5:53 PM 77.0 °F - 66.9 °F 71% 30.12 in 10.0 mi ENE 11.5 mph - N/A   Mostly Cloudy
6:53 PM 75.0 °F - 68.0 °F 79% 30.13 in 10.0 mi ENE 11.5 mph - N/A   Mostly Cloudy
7:04 PM 73.4 °F - 68.0 °F 83% 30.14 in 10.0 mi ENE 10.4 mph - 0.00 in Rain , Thunderstorm Light Rain
7:18 PM 73.4 °F - 69.8 °F 88% 30.15 in 7.0 mi NE 10.4 mph - 0.02 in Rain , Thunderstorm Rain
7:28 PM 71.6 °F - 69.8 °F 94% 30.17 in 5.0 mi SSW 5.8 mph - 0.05 in Rain , Thunderstorm Rain
7:38 PM 71.6 °F - 68.0 °F 88% 30.18 in 2.5 mi South 5.8 mph - 0.14 in Rain , Thunderstorm Heavy Rain
7:44 PM 69.8 °F - 68.0 °F 94% 30.19 in 1.8 mi SSW 3.5 mph - 0.23 in Rain , Thunderstorm Heavy Rain
7:53 PM 69.1 °F - 68.0 °F 96% 30.17 in 0.8 mi SE 4.6 mph - 0.53 in Rain , Thunderstorm Heavy Thunderstorms and Rain
8:03 PM 69.8 °F - 66.2 °F 88% 30.18 in 0.5 mi North 6.9 mph - 0.62 in Fog , Rain , Thunderstorm Heavy Thunderstorms and Rain
8:12 PM 69.8 °F - 66.2 °F 88% 30.18 in 1.0 mi Variable 4.6 mph - 0.76 in Rain , Thunderstorm Heavy Thunderstorms and Rain
8:19 PM 69.8 °F - 66.2 °F 88% 30.20 in 2.0 mi SE 6.9 mph - 0.81 in Rain , Thunderstorm Heavy Thunderstorms and Rain
8:37 PM 69.8 °F - 66.2 °F 88% 30.20 in 2.0 mi East 4.6 mph - 0.98 in Rain Heavy Rain
8:44 PM 69.8 °F - 66.2 °F 88% 30.20 in 1.5 mi East 4.6 mph - 1.11 in Rain Heavy Rain
8:53 PM 69.1 °F - 68.0 °F 96% 30.18 in 1.0 mi East 5.8 mph - 1.32 in Rain Heavy Rain
9:01 PM 69.8 °F - 68.0 °F 94% 30.19 in 2.0 mi East 5.8 mph - 0.06 in Rain Heavy Rain
9:10 PM 69.8 °F - 68.0 °F 94% 30.20 in 5.0 mi East 5.8 mph - 0.07 in Rain Rain
9:32 PM 69.8 °F - 68.0 °F 94% 30.20 in 4.0 mi East 5.8 mph - 0.14 in Rain Heavy Rain
9:53 PM 70.0 °F - 68.0 °F 93% 30.19 in 5.0 mi East 8.1 mph - 0.21 in Rain Rain
10:53 PM 70.0 °F - 68.0 °F 93% 30.19 in 9.0 mi East 10.4 mph - 0.05 in Rain Light Rain
11:53 PM 70.0 °F - 68.0 °F 93% 30.19 in 7.0 mi East 3.5 mph - 0.01 in   Overcast